Regional Weather Roundup
Issued by NWS

Home | Current Version | Previous Version | Graphics & Text | Print | Product List | Glossary On
Versions: 1 2 3 4 5 6 7 8 9 10 11 12 13 14 15 16 17 18 19 20 21 22 23 24 25 26 27 28 29 30 31 32 33 34 35 36 37 38 39 40 41 42 43 44 45 46 47 48 49 50
000
ASUS45 KBOU 281507
RWRCO

WEATHER ROUNDUP FOR COLORADO
NATIONAL WEATHER SERVICE DENVER/BOULDER CO
900 AM MDT MON JUL 28 2014

NOTE: "FAIR" INDICATES FEW OR NO CLOUDS BELOW 12000 FEET WITH NO
SIGNIFICANT WEATHER AND/OR OBSTRUCTIONS TO VISIBILITY.

COZ001>005-013-030-031-281600-
...NORTHWEST COLORADO...

CITY           SKY/WX    TMP DP  RH WIND       PRES   REMARKS
CRAIG          SUNNY     64  52  64 CALM      30.41R
HAYDEN         SUNNY     68  45  42 E7        30.43R
MEEKER         MOSUNNY   71  49  45 CALM      30.42R
MOUNT WERNER   NOT AVBL
STEAMBOAT SPGS SUNNY     64  49  59 CALM      30.45S
WALDEN         SUNNY     59  46  63 CALM      30.54S
$$

COZ006>008-011-281600-
...WEST CENTRAL VALLEYS...

CITY           SKY/WX    TMP DP  RH WIND       PRES   REMARKS
GRAND JUNCTION PTSUNNY   75  52  44 SW6       30.32R
MONTROSE       PTSUNNY   73  52  47 S5        30.40S
EAGLE          NOT AVBL
RIFLE          MOSUNNY   72  48  42 CALM      30.37S
DELTA          PTSUNNY   76  53  45 CALM      30.36S
NUCLA          CLOUDY    68  52  56 SE5       30.45R
$$

COZ017>023-064>068-281600-
...SOUTHWEST COLORADO...

CITY           SKY/WX    TMP DP  RH WIND       PRES   REMARKS
DURANGO        PTSUNNY   67  55  65 CALM      30.47R
CORTEZ         PTSUNNY   69  58  67 NE3       30.41S
PAGOSA SPRINGS MOSUNNY   64  51  62 CALM      30.54S
TELLURIDE      PTSUNNY   61  48  63 CALM      30.61R
WOLF CREEK PAS NOT AVBL
$$

COZ009-010-012-014-032>034-037-058>063-281600-
...CENTRAL COLORADO...

CITY           SKY/WX    TMP DP  RH WIND       PRES   REMARKS
ASPEN          MOSUNNY   63  48  58 SW6       30.52S
BUENA VISTA    PTSUNNY   64  51  64 CALM      30.54S
COPPER MTN     SUNNY     54  41  62 W12       30.82S
BERTHOUD PASS  FAIR      46  32  57 MISG      30.87R
COTTONWOOD PAS CLOUDY    61  50  67 CALM      30.66S
GUNNISON       MOSUNNY   63  48  59 CALM      30.56R
KREMMLING      SUNNY     61  43  51 CALM      30.52S
LEADVILLE      MOSUNNY   54  46  74 CALM      30.65F
MONARCH PASS   MOSUNNY   46  43  87 SW17      30.91R
SALIDA         PTSUNNY  N/A N/A N/A CALM      30.59S
SUNLIGHT       PTSUNNY   59  48  67 CALM      30.75R
WILKERSON PASS NOT AVBL
$$

COZ069>075-281600-
...SAN LUIS VALLEY/SANGRE DE CRISTO MOUNTAINS...

CITY           SKY/WX    TMP DP  RH WIND       PRES   REMARKS
ALAMOSA        PTSUNNY   61  55  81 N5        30.54R
LA VETA PASS   CLOUDY    52  46  82 SW9G17    30.69R
SAGUACHE       PTSUNNY   61  54  77 CALM      30.57S
$$

COZ035-036-038>040-281600-
...NORTHERN COLORADO FRONT RANGE...

CITY           SKY/WX    TMP DP  RH WIND       PRES   REMARKS
DENVER INTL AP PTSUNNY   69  58  67 W9        30.36R
DMNS CITY PARK   N/A     71  59  65 W2        30.37S
AURORA         PTSUNNY   69  60  73 NW6       30.39R
FRONT RANGE AP MOSUNNY   72  57  60 W8        30.38
ERIE MUNI ARPT MOSUNNY   70  60  72 N8        30.36R
BOULDER MUN AP MOSUNNY   70  57  64 N5        30.37R
CENTENNIAL     PTSUNNY   69  57  65 NW6       30.39R
BROOMFIELD     PTSUNNY   68  57  68 N5        30.39R
FORT COLLINS   SUNNY     70  59  68 N10       30.36S
LONGMONT       SUNNY     73  60  65 N10       30.37R
$$

COZ041-046-047-076>085-087-088-281600-
...PIKES PEAK/PALMER DIVIDE AND SOUTHERN FOOTHILLS...

CITY           SKY/WX    TMP DP  RH WIND       PRES   REMARKS
COLO. SPRINGS  PTSUNNY   64  58  80 CALM      30.43S
A. F. ACADEMY  CLOUDY    61  59  94 VRB3      30.45R
ELLICOTT       SUNNY     66  60  81 S5        30.42R
FALCON         SUNNY     64  59  85 CALM      30.47S
FORT CARSON    CLOUDY    63  59  88 NW3       30.41S
LIMON          MOSUNNY   68  61  78 SE10      30.39S
MONUMENT HILL  SUNNY     64  54  68 NW3       30.46R
TRINIDAD       CLOUDY    65  58  78 SW5       30.41R
$$

COZ042>045-048>051-090-091-281600-
...NORTHEAST COLORADO...

CITY           SKY/WX    TMP DP  RH WIND       PRES   REMARKS
GREELEY ARPT   SUNNY     68  57  68 NE5       30.35R
AKRON          MOSUNNY   76  56  49 S9G22     30.35S
BURLINGTON     PTSUNNY   68  58  70 S9        30.36S
WRAY             N/A     76  52  43 SE12      30.34R
STERLING       PTSUNNY   73  61  64 S5        30.32R
HOLYOKE        SUNNY     73  57  56 SE9       30.34S
FORT MORGAN    SUNNY     72  56  56 SE8       30.34S
$$

COZ086-089-092>099-281600-
...SOUTHEAST COLORADO...

CITY           SKY/WX    TMP DP  RH WIND       PRES   REMARKS
PUEBLO         PTSUNNY   68  64  87 SE5       30.35R
LA JUNTA       PTSUNNY   69  65  86 SE13      30.34R
LAMAR          CLOUDY    70  62  76 SE10      30.32R
SPRINGFIELD      N/A     64  61  90 S14       30.39R
$$


USA.gov is the U.S. government's official web portal to all federal, state and local government web resources and services.